Location: Newton_East
(35.6670°N, 81.2000°W)
Time: 14:56:08
(UTC-05:00)

ISS - Visible Passes

Search period start: 01 March 2017 00:00
Search period end: 11 March 2017 00:00
Orbit: 400 x 410 km, 51.6° (Epoch: 02 March)

Date Brightness Start Highest point End Pass type
(mag) Time Alt. Az. Time Alt. Az. Time Alt. Az.
01 Mar -2.5 06:02:57 10° SSW 06:06:11 52° SE 06:09:24 10° ENE visible
02 Mar -1.2 05:12:48 19° SSE 05:14:07 24° SE 05:16:51 10° ENE visible
03 Mar 0.2 04:23:23 10° ESE 04:23:23 10° ESE 04:23:26 10° ESE visible
03 Mar -3.1 05:56:05 19° WSW 05:58:14 53° NW 06:01:29 10° NE visible
04 Mar -2.8 05:06:28 59° E 05:06:28 59° E 05:09:19 10° NE visible
05 Mar 0.2 04:16:41 11° ENE 04:16:41 11° ENE 04:16:52 10° ENE visible
05 Mar -1.8 05:49:21 20° WNW 05:50:24 23° NNW 05:53:08 10° NNE visible
06 Mar -1.5 04:59:26 26° NNE 04:59:26 26° NNE 05:01:13 10° NE visible
07 Mar -1.0 05:42:03 12° NW 05:42:41 13° NNW 05:44:17 10° N visible
08 Mar -0.6 04:51:56 14° N 04:51:56 14° N 04:52:42 10° NNE visible
